Theta_e
294 294 294 295 296 299 301 305 308 310 314 314 310 308 302 305 307 307 309 309 310 312 313 312 312 312 312 311 312 312 312 311 309 308 307 308 309 307 305 301 299 298 297
293 293 293 294 294 295 296 299 303 305 307 308 304 301 300 299 299 300 302 303 304 304 305 305 305 307 307 305 304 305 306 305 304 302 299 297 302 300 300 298 299 299 297
293 291 292 292 294 295 295 296 298 301 302 303 303 303 300 297 296 294 295 295 297 298 298 298 299 300 300 300 301 301 300 300 300 300 299 298 297 293 301 300 300 297 298
292 291 291 291 291 292 294 295 297 298 298 299 300 299 294 289 287 288 289 289 290 291 291 292 293 293 294 295 295 296 298 299 297 298 297 297 295 295 293 297 298 298 297
292 291 290 290 290 291 291 291 292 293 293 294 295 293 289 287 287 287 287 286 286 286 286 286 286 286 286 287 289 292 293 293 294 294 295 295 295 294 292 294 294 295 297
292 291 290 289 288 289 289 289 289 289 290 290 289 288 287 286 286 285 285 285 285 285 285 285 285 285 285 285 285 285 285 286 287 288 290 291 293 294 293 293 295 294 295
291 290 289 289 288 288 287 287 287 286 287 287 286 286 285 285 285 285 285 285 285 284 284 284 284 284 284 284 283 284 284 283 284 284 284 285 286 288 290 291 292 293 294
291 290 290 289 288 288 287 287 287 286 286 286 285 285 285 285 285 284 284 284 284 283 283 283 283 283 283 283 283 283 283 283 283 283 283 283 283 284 285 288 290 290 292
291 290 291 290 288 288 288 287 286 286 285 285 285 285 285 285 285 284 284 284 284 283 283 283 283 283 283 282 282 282 282 282 282 282 282 282 282 282 283 283 285 289 290
292 291 291 291 289 288 287 287 287 286 285 285 286 285 285 285 285 285 284 284 283 283 283 283 282 282 282 281 281 281 281 281 281 281 281 282 282 282 282 282 282 283 287
293 291 292 292 290 289 287 286 286 286 285 285 285 285 285 285 285 284 284 283 282 282 282 281 281 281 280 280 280 280 280 280 281 281 280 280 280 280 281 281 281 281 283
292 292 293 292 290 289 288 287 286 286 285 285 285 285 284 284 284 284 284 283 282 281 281 280 280 279 279 279 278 278 278 278 278 279 279 278 279 279 279 280 280 281 281
292 290 291 290 290 289 289 287 287 286 286 285 285 285 284 284 284 284 283 283 282 281 280 279 279 278 278 277 277 277 276 277 277 277 277 277 278 278 278 278 279 280 280
293 290 288 289 290 290 289 288 287 286 286 285 285 285 284 284 284 284 283 282 281 281 280 279 278 277 276 276 275 275 275 275 275 275 275 275 276 276 277 277 278 279 280
292 289 288 288 288 288 288 287 287 286 286 286 285 285 284 284 283 283 284 283 282 281 280 279 278 277 276 274 274 274 274 274 274 273 273 273 274 274 275 276 276 277 278
293 291 288 288 287 288 288 288 287 286 286 285 285 285 284 283 284 284 284 283 281 279 279 278 277 276 274 273 273 274 273 272 272 272 271 271 271 272 272 273 274 275 276
291 290 288 287 287 288 289 287 287 286 285 285 285 284 283 283 283 283 282 280 279 278 277 276 275 274 273 272 272 272 271 271 271 270 270 270 270 270 270 270 271 272 272
286 287 289 288 288 289 288 288 287 287 285 285 284 284 282 282 282 282 280 278 277 276 276 275 273 272 271 270 270 271 270 269 269 269 269 269 269 269 270 271 271 272 272
286 287 288 288 288 288 288 287 286 285 285 284 283 282 281 281 281 279 278 277 275 275 274 272 270 270 270 270 269 270 269 269 269 269 269 269 269 269 271 272 273 273 273
287 288 288 288 289 289 288 286 285 285 284 283 281 280 280 280 279 277 276 275 274 272 271 271 270 269 269 269 268 269 269 269 269 269 269 270 271 272 273 273 273 273 273
288 288 288 288 289 288 287 285 284 283 282 280 279 279 278 278 277 276 274 273 272 271 270 269 268 268 268 268 267 269 270 270 270 271 271 271 272 272 273 274 274 274 274
287 288 288 288 288 287 285 284 282 281 280 279 278 277 276 275 275 273 272 271 270 269 268 267 268 267 267 267 267 269 271 272 272 272 272 272 273 274 276 276 276 277 277
287 288 287 288 287 286 284 282 282 279 278 277 276 275 275 274 272 271 271 270 269 267 266 265 264 266 267 268 268 269 270 272 272 272 273 274 274 274 275 274 274 274 274
286 288 286 285 286 284 282 281 279 278 276 275 274 273 273 272 271 270 269 268 267 266 265 264 264 267 267 269 269 270 271 272 272 272 273 273 271 270 270 269 270 270 270
286 285 285 285 285 283 280 278 277 276 275 273 272 271 270 270 269 268 268 267 267 266 265 267 268 269 269 269 271 272 272 273 273 272 269 267 266 266 266 267 267 267 268
285 284 284 283 282 280 278 276 275 274 273 271 270 269 268 267 267 266 267 267 266 267 268 270 270 270 269 270 271 271 272 272 269 267 264 263 263 264 264 265 265 266 267
Wind_Speed
6 15 18 18 19 20 21 22 22 20 21 24 26 27 29 28 27 25 23 24 22 20 18 17 16 16 14 12 9 8 9 10 12 12 13 14 20 17 18 21 23 23 23
5 13 19 21 23 22 24 25 25 25 24 26 26 26 28 30 27 25 24 22 21 20 20 20 20 17 14 15 14 12 9 7 12 7 8 4 7 2 14 11 13 18 23
7 5 13 18 21 24 23 26 27 25 24 23 25 25 26 25 27 28 28 27 25 23 22 21 20 18 17 19 18 17 14 11 9 10 3 3 2 11 11 20 18 15 20
4 6 10 15 18 20 22 25 27 29 29 27 26 28 31 31 28 28 27 28 28 28 27 26 25 24 22 20 19 16 15 13 14 10 6 7 9 3 5 4 23 25 21
3 5 9 13 14 18 20 23 26 28 27 28 28 30 33 30 26 25 26 26 26 26 26 26 26 28 27 26 24 22 20 18 15 14 13 12 11 8 6 7 8 26 30
6 4 8 11 14 16 19 21 24 26 25 26 27 28 28 26 25 23 24 23 24 24 24 23 24 23 23 24 22 21 21 21 20 18 16 12 6 10 10 6 18 21 24
7 5 7 9 12 14 16 18 21 23 23 24 25 24 24 23 22 21 20 20 20 22 22 21 21 21 21 20 20 20 19 20 18 18 17 15 15 14 15 14 17 11 19
7 8 11 11 11 12 13 15 17 20 19 20 21 20 19 20 20 19 18 18 18 17 17 17 18 19 18 19 19 20 20 19 19 19 18 18 17 16 16 13 12 10 13
8 8 13 13 13 12 12 13 15 16 16 17 17 17 16 16 16 15 14 15 14 15 15 16 16 17 19 21 22 23 23 22 23 23 22 22 22 21 20 19 18 10 6
8 7 13 14 14 14 13 12 12 14 14 14 13 13 12 12 12 11 11 11 10 11 13 15 17 19 21 23 24 27 28 29 29 27 27 27 27 28 26 24 23 22 17
9 7 16 20 18 16 14 13 13 13 13 11 11 10 9 8 8 8 8 9 10 11 13 16 19 22 24 25 26 27 28 28 30 32 31 33 31 31 30 32 31 30 24
8 10 19 20 19 20 18 17 15 14 13 12 11 9 7 5 3 4 7 9 11 13 16 20 24 26 28 29 30 30 29 30 32 33 34 32 29 30 28 29 30 28 27
8 8 14 20 23 23 21 19 18 16 15 14 12 9 6 3 1 5 9 13 16 18 21 24 26 28 29 30 29 27 29 28 27 27 26 28 28 27 26 26 27 27 28
9 7 7 17 24 26 25 23 20 19 17 16 14 12 9 5 4 7 11 15 18 21 24 26 28 29 30 28 25 28 28 29 27 27 24 24 25 26 28 27 27 26 26
7 7 8 14 20 26 25 23 23 22 21 19 17 14 10 7 6 8 13 18 21 23 26 28 29 30 29 21 25 26 26 27 28 27 25 24 24 27 30 32 32 30 29
7 7 7 13 21 28 28 27 25 25 24 23 20 16 13 10 10 12 16 20 22 24 26 28 29 30 28 25 21 23 27 27 27 28 27 26 26 25 26 28 30 32 34
7 6 7 13 19 26 29 28 28 25 26 25 22 18 15 13 12 14 17 20 22 24 26 27 29 30 31 25 24 25 26 27 26 26 27 28 25 25 26 28 28 28 28
7 6 10 13 16 19 23 25 24 23 25 25 22 19 16 14 13 15 17 19 22 24 26 28 27 30 31 27 24 25 26 25 25 25 26 27 28 26 27 29 30 29 28
12 14 11 8 7 11 15 19 21 22 23 25 23 19 16 14 14 16 18 20 22 24 26 26 28 29 32 29 23 24 25 25 26 26 26 27 29 28 28 31 31 29 30
13 13 10 8 10 13 14 16 20 22 26 25 20 17 14 14 15 17 19 20 21 24 25 28 28 28 30 25 22 22 24 26 27 27 27 26 28 30 30 33 32 32 33
17 12 10 14 16 15 15 19 21 25 22 19 17 14 14 15 17 18 18 19 21 24 27 29 29 28 26 28 21 21 25 26 28 27 28 30 32 33 33 33 36 37 39
16 14 14 17 19 17 17 21 23 21 18 17 15 14 14 15 16 18 17 18 20 23 26 28 31 28 28 27 22 23 24 27 30 31 32 34 35 36 39 39 37 41 41
22 18 18 20 21 20 20 23 23 19 18 16 15 14 15 15 15 17 18 20 19 22 25 24 26 29 28 26 20 26 26 30 32 31 34 38 38 37 32 30 37 40 34
25 28 20 20 23 22 22 23 20 18 18 17 15 15 15 15 15 16 18 19 21 22 22 22 24 28 22 21 27 31 28 28 32 33 31 26 29 34 31 31 28 26 27
25 23 21 24 27 23 23 22 19 18 17 16 15 15 15 16 17 18 18 19 19 19 21 24 22 21 21 23 27 29 31 32 32 34 31 33 30 25 25 26 26 27 28
23 19 21 22 23 20 22 22 20 18 17 17 16 16 16 16 17 18 21 16 17 18 19 20 20 19 21 22 24 25 28 28 29 27 25 23 22 22 24 26 28 29 28
Wind_Direction
41 59 56 60 64 68 71 75 81 88 101 97 91 86 78 78 73 68 62 57 54 52 50 51 47 40 34 29 19 3 349 336 335 333 323 316 303 296 290 281 276 274 274
47 43 57 62 64 62 68 71 79 84 90 97 96 91 84 76 72 68 65 61 55 50 50 48 45 44 39 35 28 22 9 356 360 350 324 342 322 319 344 339 341 316 287
123 66 62 64 67 67 68 75 81 87 93 99 104 100 92 81 72 65 64 62 61 57 53 48 46 44 43 40 32 24 15 1 355 359 338 332 320 329 311 315 317 335 321
115 103 94 80 76 75 79 83 86 89 92 97 97 94 91 87 82 78 74 69 66 63 58 56 51 47 42 40 37 33 30 19 11 2 26 314 291 315 320 326 305 310 312
133 120 100 93 89 91 90 91 92 92 93 93 94 94 95 95 92 86 80 73 69 64 61 58 54 51 46 46 43 37 34 32 27 21 355 340 333 295 264 305 317 310 303
154 138 116 109 99 97 98 98 96 94 94 94 95 96 97 95 89 81 73 67 64 60 56 52 50 49 45 38 35 40 39 35 31 23 18 11 343 322 312 300 307 302 307
161 173 148 131 120 113 109 105 102 100 100 97 94 94 95 92 87 79 72 65 58 52 49 43 41 38 33 31 20 23 26 22 19 12 5 1 355 338 318 306 299 291 306
169 187 179 160 152 142 133 124 116 111 106 102 99 96 90 83 78 71 65 60 54 45 38 34 30 25 18 12 8 4 7 1 357 353 348 338 334 331 325 311 296 305 296
186 192 191 182 172 164 156 147 132 121 116 108 104 96 89 82 74 68 58 48 38 28 21 16 14 8 3 359 354 353 352 346 343 339 335 328 323 318 314 310 305 277 303
195 200 199 195 191 185 175 161 149 139 130 122 113 104 94 86 75 62 51 39 26 13 7 2 359 356 354 350 348 346 344 340 338 335 328 322 320 315 313 309 304 297 272
198 199 203 205 199 191 183 174 168 161 151 143 131 120 107 95 79 60 44 26 10 2 356 353 350 349 347 346 344 343 340 335 330 328 326 321 320 315 313 310 305 300 291
198 201 210 207 201 197 192 189 183 177 171 165 160 156 145 121 78 41 18 5 357 351 349 348 346 346 345 344 343 340 337 333 327 323 320 315 315 311 308 304 300 296 291
202 207 207 205 207 204 202 199 195 192 189 187 185 186 188 204 332 359 355 351 348 346 345 345 344 343 341 341 341 338 331 324 316 311 307 306 307 303 300 297 292 289 287
205 208 198 211 212 211 209 207 205 204 201 201 202 207 213 235 301 333 339 340 339 337 338 339 339 339 338 340 336 328 322 317 311 307 303 299 295 294 295 294 290 289 286
218 212 214 213 213 214 213 212 214 210 209 210 211 217 222 240 277 311 324 328 328 329 331 331 332 333 336 333 327 324 319 314 310 307 305 301 296 292 290 290 290 288 286
237 227 217 210 212 213 214 214 216 216 214 217 219 220 226 244 278 303 314 317 320 323 326 327 328 329 330 328 326 321 314 309 306 305 305 302 301 298 294 290 287 284 288
230 237 227 223 222 218 219 220 223 222 221 221 221 224 233 252 277 298 306 312 318 321 323 324 325 325 326 329 322 318 311 306 303 301 301 300 299 297 295 292 290 286 282
211 219 224 225 225 227 228 234 237 232 226 222 222 225 236 255 279 296 305 312 315 318 320 320 321 323 324 324 320 317 309 302 300 298 296 296 295 294 295 292 287 283 279
210 212 211 211 217 229 239 241 242 236 223 221 221 226 240 262 284 298 305 310 312 314 316 318 320 320 321 326 318 315 309 303 300 299 295 291 291 294 295 288 285 285 283
209 197 197 224 252 262 261 248 240 223 219 218 220 232 251 274 290 298 301 306 310 312 313 314 316 317 319 327 317 313 307 302 301 297 294 295 297 297 296 292 288 284 281
201 207 225 241 249 256 249 237 231 223 224 219 226 241 263 281 289 293 299 304 308 309 309 311 315 318 324 328 315 313 308 302 297 296 299 295 296 298 295 291 284 278 281
215 222 233 243 249 249 240 231 226 225 222 225 236 252 268 279 287 292 298 300 302 304 308 313 316 323 329 328 313 313 309 306 304 300 298 295 295 293 293 294 293 294 295
230 239 241 248 247 243 237 230 230 223 224 231 243 256 268 276 283 288 293 297 301 303 305 309 310 316 325 326 315 311 309 308 307 302 300 303 303 302 303 300 298 299 295
241 250 252 240 242 238 235 235 229 225 229 239 250 261 269 275 278 282 288 292 297 299 299 299 298 309 313 314 314 314 312 312 308 303 304 312 312 306 303 304 305 300 297
253 250 240 242 244 239 230 227 226 228 235 246 254 259 266 272 277 278 283 287 291 292 294 298 297 300 308 312 315 317 317 315 317 323 324 319 322 319 316 313 310 308 305
260 246 243 238 240 236 224 222 225 233 239 245 251 257 260 265 271 280 287 280 283 284 284 288 291 299 302 312 317 319 321 325 328 325 328 321 319 316 314 313 312 310 307